Location: Doux
(49.5045°N, 4.4321°E)
Time: 05:04:51
(UTC+00:00)

Meteor 1-12 Rocket - Pass Details

Date: 23 May 2024
Orbit: 855 x 925 km, 81.2° (Epoch: 19 June)

Event Time Altitude Azimuth Distance (km) Brightness Sun altitude
Rises 00:00:37 0° 347° (NNW) 3,511 8.8 -19.7°
Reaches altitude 10° 00:03:04 10° 347° (NNW) 2,577 7.8 -19.7°
Maximum altitude 00:08:58 88° 261° (W) 914 4.3 -19.5°
Enters shadow 00:11:46 33° 171° (S) 1,472 4.9 -19.5°
